カタログに戻る

STARLINK-31244

運用中通信VLEO
NORAD 58856·PAYLOAD·🇺🇸 United States

打ち上げ Jan 29, 2024 から Cape Canaveral Space Force Station

Loading…

次のパス (今後24時間)

TLE

最新Source: CelesTrak SupGP

元期: Sep 14, 2026, 20:43 UTC

1 58856C 24019D   26257.86368056  .00026901  00000+0  97441-3 0  2574
2 58856  43.0018 260.5024 0001517 259.3461 144.8820 15.27563597    11

AllMySatでSTARLINK-31244をリアルタイム追跡

Download on the App Store